Regional Weather Roundup
Issued by NWS Lake Charles, LA

Home | Current Version | Previous Version | Text Only | Print | Product List | Glossary On
Versions: 1 2 3 4 5 6 7 8 9 10 11 12 13 14 15 16 17 18 19 20 21 22 23 24 25 26 27
000
ASUS44 KLCH 180210
RWRLCH
REGIONAL WEATHER ROUNDUP
NATIONAL WEATHER SERVICE LAKE CHARLES LA
800 PM CST WED JAN 17 2018

Note: "fair" indicates few or no clouds below 12,000 feet with no
significant weather and/or obstructions to visibility.


ACROSS SOUTHEAST TEXAS

CITY           SKY/WX    TMP DP  RH WIND       PRES   REMARKS
BEAUMONT       FAIR      30  14  51 NE9       30.63S WCI  22
BEAUMONT CITY  FAIR      30  15  52 N5        30.64S WCI  25
ORANGE         FAIR      29  18  62 N3        30.65S
JASPER         FAIR      27  22  82 CALM      30.67S
$$

ACROSS CENTRAL LOUISIANA

CITY           SKY/WX    TMP DP  RH WIND       PRES   REMARKS
LEESVILLE      FAIR      24  14  64 CALM      30.62S
FULLERTON      FAIR      25  16  68 CALM      30.59F
ALEXANDRIA INT FAIR      25  11  55 NE6       30.62F WCI  18
ESLER FIELD    FAIR      25  10  53 VRB5      30.63F WCI  19
DERIDDER       FAIR      25  15  65 CALM      30.65F
OAKDALE        FAIR      25  14  61 CALM      30.64R
OPELOUSAS      FAIR      24  14  64 N5        30.63R WCI  18
$$

ACROSS SOUTHWEST AND SOUTH CENTRAL LOUISIANA

CITY           SKY/WX    TMP DP  RH WIND       PRES   REMARKS
SULPHUR        FAIR      31  13  47 N6        30.65S WCI  25
LAKE CHARLES   FAIR      28  14  55 NE8       30.64S WCI  20
CHENNAULT INT  CLEAR     27  12  54 N5        30.65S WCI  21
CAMERON PHI    CLEAR     28  18  64 NE6       30.64R WCI  22
DEQUINCY       FAIR      27  13  57 CALM      30.65S
JENNINGS       FAIR      28  16  62 N3        30.64S
LAFAYETTE      FAIR      25  15  66 N6        30.63R WCI  18
NEW IBERIA     FAIR      25  15  66 N7        30.63R WCI  17
ABBEVILLE      FAIR      22  17  80 NW5       30.63R WCI  16
PATTERSON      FAIR      29  18  63 NW7       30.61R WCI  22
SALT POINT       N/A     28  16  60 N5        30.60R WCI  23
$$

SELECTED SITES ACROSS THE REGION

CITY           SKY/WX    TMP DP  RH WIND       PRES   REMARKS
HOUSTON BUSH   PTCLDY    31  15  52 N6        30.63R WCI  25
HOUSTON HOBBY  FAIR      31  17  56 N7        30.62S WCI  24
GALVESTON      FAIR      35  21  56 NE10      30.63R WCI  27
COLLEGE STAT   CLOUDY    30  11  45 NE5       30.63F WCI  25
CONROE         CLEAR     23  19  85 CALM      30.62F
HUNTSVILLE     CLEAR     26  16  65 CALM      30.62S
LUFKIN         CLEAR     25  14  63 CALM      30.64F
SHREVEPORT     CLOUDY    25  14  63 N3        30.63F
MONROE         FAIR      21  14  74 NE5       30.68S WCI  15
NATCHEZ MS     FAIR      22  15  75 N7        30.64F WCI  13
BATON ROUGE    FAIR      28  12  51 N6        30.60S WCI  22
N.O. INTL ARPT FAIR      33  15  47 N12       30.58S WCI  24
SLIDELL        FAIR      27  14  58 N6        30.59S WCI  20
$$

MARINE REPORTS

STATION/POSITION TIME  SKY/WX   TEMP    WIND        PRES    VSBY
                                AIR SEA DIR/SP/G
                 (UTC)          (F)     (DEG/KT/KT) (MB)    (MI)
BUOY 30 S HIGH I 0050            37 51  360/ 14/ 17 1036.6
WVE H/P(F/S)=  2/ 5

SEA RIM ST PARK  0200            31      20/  8/  9 1037.3S
PORT ARTHUR      0142            33 46   20/  5/  8 1037.3F
SABINE PASS N    0142            32 47   30/ 10/ 12 1038.6F
TEXAS POINT      NOT AVBL
CALCASIEU PASS   0142            29 45   70/  7/  8 1036.1S
LK CHARLES BEACH 0142            31 46              1037.3R
MARSH ISLAND     NOT AVBL
FRESH WATER LOCK 0142            25 40  310/  6/  7 1037.1R
AMERADA PASS     0142            31 40  320/  2/  6 1036.1R
$$




USA.gov is the U.S. government's official web portal to all federal, state and local government web resources and services.